Location: Unspecified
(0.0000°N, 0.0000°E)
Time: 16:15:47
(UTC+00:00)

Vanguard 2 - Pass Details

Date: 26 November 2019
Orbit: 553 x 2938 km, 32.9° (Epoch: 13 December)

Event Time Altitude Azimuth Distance (km) Brightness Sun altitude
Rises 12:46:32 0° 326° (NW) 3,355 10.7 64.5°
Reaches altitude 10° 12:50:04 10° 346° (NNW) 2,130 9.8 64.0°
Maximum altitude 12:53:11 17° 28° (NNE) 1,522 9.0 63.6°
Drops below altitude 10° 12:55:55 10° 71° (ENE) 1,842 9.4 63.2°
Sets 12:58:40 0° 93° (E) 2,711 10.2 62.7°
